[[{"header":{"parameterUnit":"m.s-1","parameterCategory":1,"la1":30.2991,"la2":30.254,"lo1":-89.0895,"lo2":-89.0444,"dy":0.0017,"dx":0.0017,"nx":28,"ny":28,"refTime":"2024-07-30T21:00:00:Z","depth":0,"parameterNumber":2,"parameterNumberName":"U-component_of_WINDS"},"data":[0,0,0,0,0,0,0,0,0,0,0,0,0,0,0,0,0,0,0,0,0,0,0,0,0,0,0,0,0,0,0,0,0,0,0,0,0,0,0,0,0,0,0,0,0,0,0,0,0,0,0,0,0,0,0,0,0,0,3.8066,3.8066,0,3.8143,3.8144,3.8145,3.8068,3.8065,3.8062,3.8059,3.8143,3.8148,3.8153,0,0,0,0,0,0,0,0,0,0,0,0,0,3.7854,3.7858,3.8065,3.8066,3.8067,3.8143,3.8144,3.8145,3.8069,3.8065,3.8061,3.8058,3.8141,3.8147,3.8153,0,0,0,0,0,0,0,0,0,0,0,0,0,3.794,3.786,3.8065,3.8038,3.8036,3.8143,3.8144,3.8146,3.8069,3.8065,3.806,3.8056,3.8139,3.8146,3.8154,3.8293,0,0,3.8177,3.818,0,0,0,0,0,0,0,0,3.7936,3.7948,3.8041,3.804,3.8038,3.8091,3.81,3.8195,3.8071,3.8057,3.8059,3.8054,3.813,3.8138,3.8162,3.8296,3.83,3.8178,3.8182,3.8186,3.8188,0,0,0,0,0,0,0,3.793,3.7944,3.8096,3.8043,3.8041,3.8023,3.8031,3.8118,3.8118,3.8058,3.8052,3.8062,3.8128,3.8155,3.8164,3.8301,3.8178,3.8184,3.8189,3.8192,3.8555,3.8559,0,0,0,0,0,0,3.7926,3.794,3.8094,3.8099,3.7975,3.8031,3.8039,3.8079,3.8117,3.8118,3.8066,3.8059,3.8145,3.8155,3.8166,3.8332,3.8186,3.8193,3.8197,3.855,3.8556,3.8561,0,0,0,0,0,0,3.7922,3.7941,3.8091,3.8018,3.8036,3.8039,3.8085,3.8083,3.811,3.8123,3.8123,3.8094,3.8141,3.8156,3.8262,3.8334,3.8196,3.8203,3.8544,3.8551,3.8558,3.8665,0,0,0,0,0,0,3.7916,3.7939,3.7991,3.802,3.804,3.8184,3.8089,3.8088,3.8123,3.8114,3.8149,3.8151,3.8139,3.8251,3.8269,3.8342,3.8209,3.8537,3.8547,3.8556,3.8655,3.8675,3.8692,0,0,0,0,0,3.7909,3.8019,3.7994,3.8013,3.8104,3.8188,3.82,3.8183,3.8129,3.8182,3.8191,3.815,3.8323,3.8262,3.8283,3.8359,3.8532,3.8544,3.8555,3.8646,3.8671,3.8692,0,0,0,0,0,0,3.8,3.8022,3.7995,3.8117,3.8151,3.8175,3.8241,3.8209,3.8261,3.825,3.8228,3.8236,3.8349,3.8364,3.8296,3.8496,3.8419,3.8435,3.8482,3.8505,3.8524,3.8518,3.8215,0,0,0,0,0,3.8034,3.8099,3.8115,3.8221,3.8239,3.8238,3.8273,3.8257,3.8292,3.8307,3.8323,3.836,3.8423,3.8464,3.8523,3.8656,3.8664,3.8719,3.8738,3.8753,3.8767,3.8841,3.8866,3.8599,3.8598,3.8598,0,0,3.8105,3.8125,3.8168,3.824,3.8264,3.8334,3.825,3.8327,3.8379,3.8319,3.842,3.8434,3.8473,3.8594,3.8648,3.861,3.8843,3.8767,3.878,3.8786,3.8855,3.888,3.8903,3.8606,3.8605,3.8604,0,0,3.8271,3.8292,3.8383,3.8409,3.8447,3.8445,3.8468,3.8497,3.8503,3.8604,3.8561,3.8623,3.8731,3.8761,3.8791,3.8969,3.8934,3.8989,3.9087,3.9159,3.918,3.9199,3.9264,3.9287,3.9003,3.9003,3.9003,0,3.8355,3.8456,3.8434,3.8514,3.8548,3.8496,3.8589,3.8616,3.8672,3.8698,3.8654,3.8789,3.8812,3.894,3.8984,3.9009,3.9035,3.8985,3.9178,3.9197,3.9214,3.9276,3.93,3.901,3.9009,3.9008,3.9007,0,3.8559,3.863,3.87,3.8754,3.8795,3.8882,3.8874,3.8919,3.89,3.8903,3.9007,3.9033,3.9096,3.9125,3.9107,3.9251,3.9227,3.9181,3.9104,3.9246,3.9304,3.9328,3.9019,3.9017,3.9015,3.9013,0,0,3.8785,3.8826,3.8852,3.8876,3.8915,3.897,3.9055,3.9116,3.9155,3.9196,3.9267,3.936,3.9319,3.9353,3.9338,3.94,3.9542,3.9347,3.9348,3.9384,3.9704,3.9739,3.9767,3.9518,3.9523,3.9526,3.9701,0,3.8953,3.9098,3.9081,3.9221,3.9288,3.924,3.9313,3.9346,3.9351,3.941,3.9416,3.9483,3.9422,3.9442,3.9502,3.9512,3.9606,3.9499,3.9586,3.959,3.9579,3.9797,3.9833,3.9998,3.9723,3.9727,3.973,0,3.9168,3.9216,3.9362,3.9391,3.9418,3.9485,3.954,3.9596,3.9632,3.9632,3.967,3.9644,3.9731,3.9651,3.9771,3.9699,3.9733,3.9744,3.975,3.9758,3.9669,3.9813,4.0049,4.0075,3.9765,3.9762,3.976,0,3.932,3.9421,3.9521,3.9544,3.958,3.9628,3.9646,3.9677,3.9715,3.9764,3.9789,3.9847,3.9879,3.9926,3.9917,3.986,4.004,3.9959,4.0044,4.0044,4.0085,4.0083,4.0332,4.0106,4.0105,4.0105,4.0104,0,3.9511,3.9603,3.959,3.9653,3.9755,3.9735,3.9837,3.9848,3.9877,3.9942,3.9903,3.9965,3.9949,4.0011,4.0005,4.0106,4.0121,4.0124,4.0122,4.0128,4.0128,4.0152,4.0141,4.0111,4.011,4.0108,4.0107,0,3.9698,3.9693,3.98,3.9826,3.9834,3.9908,3.9931,3.999,3.9992,4.0075,4.0093,4.0097,4.0168,4.0163,4.0243,4.0239,4.0365,4.0348,4.0352,4.0349,4.0435,4.0427,4.0709,4.0746,4.0494,4.0496,4.0498,0,3.9821,3.989,3.9923,3.9963,3.9983,4.0048,4.0087,4.007,4.0112,4.0159,4.0213,4.028,4.0333,4.0449,4.046,4.0521,4.0507,4.0601,4.0516,4.0521,4.051,4.0507,4.0514,4.0619,4.0622,4.0624,4.0626,0,4.0039,4.0033,4.0089,4.0146,4.0192,4.0236,4.0276,4.0311,4.0299,4.0348,4.0419,4.046,4.0542,4.061,4.0668,4.0687,4.0656,4.0652,4.0675,4.0684,4.0684,4.0686,4.04,4.0646,4.0644,4.0643,4.0642,4.0641,4.0199,4.0259,4.0291,4.0356,4.0383,4.0422,4.0479,4.0488,4.0547,4.0611,4.0598,4.0679,4.0714,4.079,4.0815,4.0879,4.0845,4.0878,4.0887,4.0895,4.0906,4.0673,4.0889,4.0888,4.0888,4.0887,4.0887,0,4.0417,4.0435,4.0494,4.0551,4.0602,4.0565,4.0608,4.0653,4.0724,4.076,4.0812,4.0895,4.0961,4.0977,4.104,4.1088,4.1076,4.1106,4.1103,4.1108,4.0932,4.0906,4.1115,4.1115,4.1115,4.1115,4.1115,4.1115,4.0536,4.0636,4.0634,4.0748,4.0766,4.0844,4.0872,4.0907,4.0935,4.1029,4.1083,4.1092,4.1121,4.1186,4.1245,4.1248,4.1274,4.1311,4.1308,4.1143,4.112,4.1099,4.1075,4.1316,4.1316,4.1479,4.1481,4.1482]},{"header":{"parameterUnit":"m.s-1","parameterCategory":1,"la1":30.2991,"la2":30.254,"lo1":-89.0895,"lo2":-89.0444,"dy":0.0017,"dx":0.0017,"nx":28,"ny":28,"refTime":"2024-07-30T21:00:00:Z","depth":0,"parameterNumber":3,"parameterNumberName":"V-component_of_WINDS"},"data":[0,0,0,0,0,0,0,0,0,0,0,0,0,0,0,0,0,0,0,0,0,0,0,0,0,0,0,0,0,0,0,0,0,0,0,0,0,0,0,0,0,0,0,0,0,0,0,0,0,0,0,0,0,0,0,0,0,0,-1.5839,-1.5839,0,-1.5817,-1.5817,-1.5817,-1.5773,-1.5773,-1.5772,-1.5771,-1.5749,-1.575,-1.575,0,0,0,0,0,0,0,0,0,0,0,0,0,-1.5845,-1.5846,-1.5839,-1.5839,-1.5839,-1.5817,-1.5817,-1.5816,-1.5774,-1.5773,-1.5772,-1.5771,-1.5749,-1.575,-1.575,0,0,0,0,0,0,0,0,0,0,0,0,0,-1.5835,-1.5846,-1.5839,-1.5815,-1.5812,-1.5817,-1.5817,-1.5816,-1.5774,-1.5773,-1.5771,-1.577,-1.5749,-1.575,-1.575,-1.5777,0,0,-1.5751,-1.5751,0,0,0,0,0,0,0,0,-1.5836,-1.5835,-1.5819,-1.5816,-1.5814,-1.5797,-1.5811,-1.5803,-1.5774,-1.5788,-1.5771,-1.577,-1.5766,-1.5765,-1.5764,-1.5776,-1.5775,-1.5751,-1.5751,-1.5751,-1.5751,0,0,0,0,0,0,0,-1.5836,-1.5836,-1.583,-1.5818,-1.5815,-1.5805,-1.5802,-1.5809,-1.5785,-1.5787,-1.5784,-1.5782,-1.5765,-1.5764,-1.5763,-1.5775,-1.5751,-1.5751,-1.5751,-1.5751,-1.5809,-1.581,0,0,0,0,0,0,-1.5841,-1.5836,-1.5831,-1.583,-1.5822,-1.5806,-1.5803,-1.5803,-1.5785,-1.578,-1.5783,-1.578,-1.5764,-1.5763,-1.5762,-1.5793,-1.5751,-1.5752,-1.5752,-1.5808,-1.5809,-1.5811,0,0,0,0,0,0,-1.5841,-1.5841,-1.5832,-1.5832,-1.583,-1.5807,-1.5808,-1.5804,-1.5802,-1.5781,-1.5777,-1.5786,-1.5763,-1.5762,-1.5774,-1.5791,-1.5752,-1.5752,-1.5806,-1.5808,-1.581,-1.5854,0,0,0,0,0,0,-1.5841,-1.5841,-1.5851,-1.5833,-1.5831,-1.5844,-1.5809,-1.5804,-1.5803,-1.5799,-1.5783,-1.578,-1.5762,-1.5773,-1.5774,-1.5791,-1.5752,-1.5804,-1.5807,-1.5809,-1.5851,-1.5858,-1.5863,0,0,0,0,0,-1.5842,-1.5864,-1.5852,-1.5851,-1.5842,-1.5845,-1.5844,-1.5822,-1.5805,-1.5815,-1.5801,-1.578,-1.5789,-1.5775,-1.5775,-1.5793,-1.5803,-1.5806,-1.5809,-1.5849,-1.5856,-1.5863,0,0,0,0,0,0,-1.5885,-1.5862,-1.5847,-1.5865,-1.5857,-1.5838,-1.585,-1.5831,-1.5829,-1.5825,-1.5799,-1.5796,-1.5811,-1.5803,-1.5788,-1.5818,-1.5793,-1.5796,-1.5823,-1.583,-1.5836,-1.5837,-1.5752,0,0,0,0,0,-1.5897,-1.5901,-1.588,-1.5898,-1.5895,-1.5873,-1.5873,-1.5857,-1.5849,-1.5845,-1.5833,-1.5825,-1.5827,-1.5828,-1.5828,-1.585,-1.5846,-1.5862,-1.5868,-1.5873,-1.5876,-1.5887,-1.5894,-1.5821,-1.5821,-1.582,0,0,-1.5921,-1.5909,-1.5913,-1.5906,-1.5898,-1.5903,-1.5871,-1.5877,-1.588,-1.5846,-1.5857,-1.5848,-1.5838,-1.5855,-1.5862,-1.5849,-1.5896,-1.5877,-1.5881,-1.5881,-1.5891,-1.5898,-1.5904,-1.5823,-1.5822,-1.5822,0,0,-1.5968,-1.5959,-1.5972,-1.5965,-1.5954,-1.5939,-1.5943,-1.5926,-1.5919,-1.5929,-1.5903,-1.5907,-1.591,-1.5904,-1.5901,-1.5946,-1.5926,-1.5947,-1.5978,-1.5989,-1.5994,-1.5999,-1.6015,-1.6021,-1.595,-1.595,-1.595,0,-1.5999,-1.6005,-1.5982,-1.599,-1.5988,-1.5957,-1.5971,-1.5965,-1.5955,-1.5954,-1.5939,-1.5942,-1.5933,-1.5948,-1.5959,-1.5958,-1.5961,-1.5948,-1.5995,-1.6,-1.6004,-1.6019,-1.6025,-1.5952,-1.5952,-1.5952,-1.5952,0,-1.6045,-1.6049,-1.6061,-1.6052,-1.6051,-1.6062,-1.604,-1.6043,-1.6027,-1.6014,-1.6025,-1.6013,-1.601,-1.6013,-1.5998,-1.6026,-1.6018,-1.6,-1.5974,-1.6014,-1.6028,-1.6033,-1.5956,-1.5955,-1.5954,-1.5954,0,0,-1.6118,-1.6095,-1.61,-1.6095,-1.608,-1.6083,-1.6093,-1.609,-1.6092,-1.6086,-1.6094,-1.6097,-1.608,-1.6077,-1.6061,-1.6071,-1.6107,-1.6051,-1.605,-1.6062,-1.6137,-1.6151,-1.6158,-1.6094,-1.6095,-1.6096,-1.6138,0,-1.6161,-1.6175,-1.6154,-1.6174,-1.6178,-1.6149,-1.6158,-1.615,-1.6138,-1.614,-1.6127,-1.613,-1.6107,-1.6105,-1.6114,-1.6101,-1.6121,-1.6097,-1.6101,-1.6101,-1.6104,-1.6165,-1.6179,-1.6219,-1.6143,-1.6144,-1.6144,0,-1.6212,-1.6209,-1.6229,-1.6213,-1.6214,-1.6222,-1.6217,-1.6219,-1.621,-1.6201,-1.6198,-1.6179,-1.6187,-1.6162,-1.6174,-1.6158,-1.6158,-1.6152,-1.6153,-1.6152,-1.6125,-1.6165,-1.6232,-1.6238,-1.6152,-1.6152,-1.6151,0,-1.6263,-1.6263,-1.6275,-1.6272,-1.6254,-1.626,-1.6253,-1.6242,-1.6242,-1.6238,-1.6238,-1.6235,-1.6234,-1.6232,-1.6213,-1.6197,-1.6227,-1.6201,-1.622,-1.6221,-1.6227,-1.6227,-1.6295,-1.6228,-1.6228,-1.6228,-1.6228,0,-1.6313,-1.6327,-1.6298,-1.6305,-1.6319,-1.6295,-1.631,-1.63,-1.6291,-1.6296,-1.6271,-1.6277,-1.6251,-1.6254,-1.6239,-1.6251,-1.625,-1.6243,-1.6239,-1.6245,-1.6246,-1.6245,-1.6242,-1.623,-1.6229,-1.6229,-1.6229,0,-1.6373,-1.6354,-1.6365,-1.6347,-1.6343,-1.6354,-1.6338,-1.6345,-1.6331,-1.6338,-1.6338,-1.6318,-1.632,-1.6301,-1.6299,-1.6289,-1.6308,-1.6299,-1.6311,-1.6308,-1.6328,-1.6326,-1.6397,-1.6405,-1.6334,-1.6334,-1.6335,0,-1.6406,-1.6415,-1.6398,-1.6399,-1.6393,-1.6396,-1.6395,-1.6373,-1.6373,-1.6363,-1.6371,-1.637,-1.6369,-1.6373,-1.6359,-1.6357,-1.6348,-1.6373,-1.6348,-1.6354,-1.6348,-1.6348,-1.6348,-1.6378,-1.6379,-1.638,-1.638,0,-1.6466,-1.6456,-1.6456,-1.6453,-1.6452,-1.6449,-1.6443,-1.6446,-1.6421,-1.6423,-1.6424,-1.6423,-1.6421,-1.6422,-1.6417,-1.641,-1.6391,-1.6388,-1.6393,-1.6399,-1.6405,-1.6402,-1.6325,-1.6387,-1.6386,-1.6386,-1.6385,-1.6385,-1.6513,-1.652,-1.6509,-1.651,-1.6503,-1.6499,-1.6504,-1.6491,-1.6492,-1.6488,-1.6475,-1.6479,-1.647,-1.6462,-1.6457,-1.6459,-1.6447,-1.6454,-1.6455,-1.6457,-1.6461,-1.6405,-1.6459,-1.6458,-1.6458,-1.6458,-1.6458,0,-1.6572,-1.6564,-1.6564,-1.6558,-1.6558,-1.654,-1.6533,-1.6535,-1.6539,-1.6531,-1.653,-1.6532,-1.6532,-1.6518,-1.6516,-1.6521,-1.6512,-1.6521,-1.6521,-1.6519,-1.6472,-1.6468,-1.6528,-1.6528,-1.6528,-1.6528,-1.6528,-1.6528,-1.6603,-1.6614,-1.6603,-1.661,-1.6602,-1.6605,-1.6603,-1.6599,-1.6593,-1.6596,-1.6596,-1.6586,-1.6576,-1.6573,-1.6573,-1.6568,-1.6569,-1.6581,-1.6574,-1.6529,-1.6523,-1.6516,-1.6512,-1.6581,-1.6581,-1.6621,-1.6621,-1.6622]}]]